Simultaneous Nadir Overpasses (SNOs) Predictions

Prediction of SNOs between GOES-15 and METOP-A Satellite Orbit:

Table of predicted SNOs for the next 14.0 days since TLE Epoch: 8/31/2012
Index Date Time (GOES-15) GOES-15 Lat,Lon METOP-A Lat,Lon Distance(km) Time Diff (sec)
1 08/31/2012 18:14:57 -0.27,-134.28 -0.99,-130.97 376.52 80
2 09/02/2012 06:31:18 0.30,-134.18 -0.00,-135.58 158.27 80
3 09/03/2012 06:13:19 0.28,-134.15 1.09,-130.58 407.19 80
4 09/04/2012 18:29:31 -0.30,-134.13 -0.08,-135.14 115.10 80
5 09/05/2012 18:11:31 -0.28,-134.10 -1.17,-130.15 450.30 80
6 09/07/2012 06:27:53 0.31,-134.00 0.16,-134.75 85.18 80
7 09/08/2012 06:09:53 0.29,-133.95 1.25,-129.75 479.44 80
8 09/09/2012 18:26:06 -0.31,-133.92 -0.24,-134.32 44.46 80
9 09/12/2012 06:24:27 0.32,-133.78 0.30,-133.92 16.18 80




NCC Satellite Simultaneous Nadir Overpasses (SNOs) Prediction Service
